YO8SDE-8 Weather Reports


time (UTC)temp
C
wind
direction
speed
KPH
gust
KPH
rain 1hr
cm
rain 24hr
cm
rain mn
cm
humidity
%
barometer
mb
20260503200602 11 45 0.0 8.0 0.00 0.00 0.00 57 1006.1
20260503195602 11 67 0.0 0.0 0.00 0.00 0.00 56 1006.0
20260503195102 11 67 0.0 0.0 0.00 0.00 0.00 56 1006.0
20260503194602 11 67 0.0 0.0 0.00 0.00 0.00 56 1006.0
20260503194102 11 112 0.0 0.0 0.00 0.00 0.00 56 1006.0
20260503193602 11 247 0.0 0.0 0.00 0.00 0.00 55 1006.0
20260503193102 11 247 0.0 0.0 0.00 0.00 0.00 54 1006.2
20260503192602 11 247 0.0 0.0 0.00 0.00 0.00 54 1006.0
20260503192102 11 247 0.0 0.0 0.00 0.00 0.00 55 1006.0
20260503191602 11 247 0.0 6.4 0.00 0.00 0.00 56 1006.1
20260503191102 11 45 0.0 0.0 0.00 0.00 0.00 55 1006.1
20260503190602 11 202 0.0 0.0 0.00 0.00 0.00 52 1006.3
20260503185602 11 135 0.0 0.0 0.00 0.00 0.00 52 1006.2
20260503185102 11 135 0.0 0.0 0.00 0.00 0.00 52 1006.1
20260503184602 11 135 0.0 0.0 0.00 0.00 0.00 52 1006.2
20260503184102 11 135 0.0 0.0 0.00 0.00 0.00 50 1006.2
20260503183602 11 135 0.0 0.0 0.00 0.00 0.00 50 1006.3
20260503183102 11 135 0.0 0.0 0.00 0.00 0.00 50 1006.1
20260503182602 11 135 0.0 0.0 0.00 0.00 0.00 50 1006.1
20260503182102 11 135 0.0 0.0 0.00 0.00 0.00 50 1006.1
20260503181602 11 135 0.0 0.0 0.00 0.00 0.00 50 1006.3
20260503181102 11 135 0.0 0.0 0.00 0.00 0.00 49 1006.2
20260503180602 12 135 0.0 0.0 0.00 0.00 0.00 48 1006.3
20260503175602 12 135 0.0 0.0 0.00 0.00 0.00 47 1006.3
20260503175102 12 135 0.0 0.0 0.00 0.00 0.00 46 1006.2
20260503174602 12 135 0.0 0.0 0.00 0.00 0.00 45 1006.1
20260503174102 13 135 0.0 0.0 0.00 0.00 0.00 45 1006.1
20260503173602 13 135 0.0 0.0 0.00 0.00 0.00 43 1006.0
20260503173102 13 135 0.0 0.0 0.00 0.00 0.00 43 1006.0
20260503172602 14 135 0.0 0.0 0.00 0.00 0.00 41 1006.0
20260503172102 15 135 0.0 0.0 0.00 0.00 0.00 40 1006.1
20260503171602 15 135 0.0 0.0 0.00 0.00 0.00 39 1006.2
20260503171102 15 135 0.0 0.0 0.00 0.00 0.00 39 1006.3
20260503170602 16 135 0.0 0.0 0.00 0.00 0.00 39 1006.3
20260503150602 24 157 3.2 9.7 0.00 0.00 0.00 25 1007.4
20260503131102 26 67 3.2 8.0 0.00 0.00 0.00 26 1008.4
20260503130602 24 112 0.0 3.2 0.00 0.00 0.00 28 1008.6
20260503110602 20 112 3.2 8.0 0.00 0.00 0.00 29 1009.8
20260503081603 20 225 0.0 4.8 0.00 0.00 0.00 31 1011.8
20260503081103 20 270 0.0 12.9 0.00 0.00 0.00 29 1011.8
20260503080603 21 202 0.0 6.4 0.00 0.00 0.00 33 1011.7
20260503072603 18 225 6.4 8.0 0.00 0.00 0.00 38 1012.0
20260503072103 18 225 6.4 8.0 0.00 0.00 0.00 43 1011.9
20260503071603 17 135 1.6 6.4 0.00 0.00 0.00 44 1011.9
20260503071103 17 135 3.2 4.8 0.00 0.00 0.00 44 1011.9
20260503070603 17 157 0.0 0.0 0.00 0.00 0.00 46 1011.9
20260503060103 11 157 0.0 4.8 0.00 0.00 0.00 64 1011.9
20260503055103 11 202 0.0 6.4 0.00 0.00 0.00 66 1011.9
20260503054603 10 202 0.0 4.8 0.00 0.00 0.00 67 1011.9
20260503054103 10 202 0.0 8.0 0.00 0.00 0.00 69 1011.9
20260503053603 7 225 6.4 6.4 0.00 0.00 0.00 68 1011.9
20260503053103 6 112 0.0 0.0 0.00 0.00 0.00 69 1011.9
20260503052603 6 112 0.0 0.0 0.00 0.00 0.00 71 1012.0
20260503052103 7 112 0.0 0.0 0.00 0.00 0.00 74 1012.0
20260503051603 7 112 0.0 0.0 0.00 0.00 0.00 76 1011.8
20260503051103 7 112 0.0 0.0 0.00 0.00 0.00 78 1011.8
20260503050603 7 112 0.0 0.0 0.00 0.00 0.00 79 1012.0
20260503045603 7 112 0.0 0.0 0.00 0.00 0.00 81 1011.9
20260503045103 7 112 0.0 0.0 0.00 0.00 0.00 82 1012.0
20260503044603 6 112 0.0 0.0 0.00 0.00 0.00 84 1011.9
20260503044103 6 112 0.0 0.0 0.00 0.00 0.00 85 1011.9
20260503043603 6 112 0.0 0.0 0.00 0.00 0.00 86 1012.0
20260503043103 5 112 0.0 0.0 0.00 0.00 0.00 87 1011.9
20260503042603 5 112 0.0 0.0 0.00 0.00 0.00 87 1011.9
20260503042103 5 112 0.0 0.0 0.00 0.00 0.00 88 1012.0
20260503041603 3 112 0.0 0.0 0.00 0.00 0.00 88 1011.8
20260503041103 3 112 0.0 0.0 0.00 0.00 0.00 87 1011.7
20260503040603 2 112 0.0 0.0 0.00 0.00 0.00 87 1011.8
20260503040103 2 112 0.0 0.0 0.00 0.00 0.00 87 1011.8
20260503035603 2 112 0.0 0.0 0.00 0.00 0.00 87 1011.7
20260503035103 2 112 0.0 0.0 0.00 0.00 0.00 88 1011.7
20260503034603 2 112 0.0 0.0 0.00 0.00 0.00 88 1011.7
20260503034103 2 112 0.0 0.0 0.00 0.00 0.00 88 1011.8
20260503033603 1 112 0.0 0.0 0.00 0.00 0.00 88 1011.6
20260503033103 1 112 0.0 0.0 0.00 0.00 0.00 87 1011.6
20260503032603 0 112 0.0 0.0 0.00 0.00 0.00 87 1011.5
20260503032103 0 112 0.0 0.0 0.00 0.00 0.00 86 1011.5
20260503031603 0 112 0.0 0.0 0.00 0.00 0.00 87 1011.4
20260503031103 0 112 0.0 0.0 0.00 0.00 0.00 87 1011.5
20260503030603 0 112 0.0 0.0 0.00 0.00 0.00 86 1011.6
20260503025603 0 112 0.0 0.0 0.00 0.00 0.00 86 1011.5
20260503025103 0 112 0.0 0.0 0.00 0.00 0.00 86 1011.4
20260503024603 0 112 0.0 0.0 0.00 0.00 0.00 86 1011.4
20260503024103 0 112 0.0 0.0 0.00 0.00 0.00 86 1011.3
20260503023603 0 112 0.0 0.0 0.00 0.00 0.00 86 1011.5
20260503023103 0 112 0.0 0.0 0.00 0.00 0.00 86 1011.5
20260503022603 0 112 0.0 0.0 0.00 0.00 0.00 86 1011.6
20260503022103 0 112 0.0 0.0 0.00 0.00 0.00 85 1011.6
20260503021603 0 112 0.0 0.0 0.00 0.00 0.00 84 1011.5
20260503021103 0 112 0.0 0.0 0.00 0.00 0.00 84 1011.5
20260503020603 0 112 0.0 0.0 0.00 0.00 0.00 84 1011.5
20260503015603 0 112 0.0 0.0 0.00 0.00 0.00 84 1011.4
20260503015103 0 112 0.0 0.0 0.00 0.00 0.00 84 1011.5
20260503014603 0 112 0.0 0.0 0.00 0.00 0.00 84 1011.4
20260503014103 0 112 0.0 0.0 0.00 0.00 0.00 84 1011.5
20260503013603 0 112 0.0 0.0 0.00 0.00 0.00 84 1011.5
20260503013103 0 112 0.0 0.0 0.00 0.00 0.00 83 1011.5
20260503012603 0 112 0.0 0.0 0.00 0.00 0.00 83 1011.4
20260503012103 0 112 0.0 0.0 0.00 0.00 0.00 83 1011.4
20260503011603 0 112 0.0 0.0 0.00 0.00 0.00 83 1011.4
20260503011103 0 112 0.0 0.0 0.00 0.00 0.00 83 1011.4
20260503010603 0 112 0.0 0.0 0.00 0.00 0.00 83 1011.5
20260503010103 0 112 0.0 0.0 0.00 0.00 0.00 83 1011.4
20260503005603 0 112 0.0 0.0 0.00 0.00 0.00 82 1011.4
20260503005103 0 112 0.0 0.0 0.00 0.00 0.00 83 1011.4
20260503004603 0 112 0.0 0.0 0.00 0.00 0.00 83 1011.4
20260503004103 0 112 0.0 0.0 0.00 0.00 0.00 83 1011.2
20260503003603 0 112 0.0 0.0 0.00 0.00 0.00 83 1011.3
20260503003103 0 112 0.0 0.0 0.00 0.00 0.00 83 1011.5
20260503002603 0 112 0.0 0.0 0.00 0.00 0.00 82 1011.5
20260503002103 0 112 0.0 0.0 0.00 0.00 0.00 82 1011.5
20260503001603 0 112 0.0 0.0 0.00 0.00 0.00 82 1011.5
20260503001103 0 112 0.0 0.0 0.00 0.00 0.00 82 1011.5
20260503000603 0 112 0.0 0.0 0.00 0.00 0.00 81 1011.5
20260503000103 0 112 0.0 0.0 0.00 0.00 0.00 79 1011.6
20260502235603 -1 112 0.0 0.0 0.00 0.00 0.00 78 1011.7
20260502235103 -1 112 0.0 0.0 0.00 0.00 0.00 78 1011.7
20260502234603 -1 112 0.0 0.0 0.00 0.00 0.00 78 1011.6
20260502234103 -1 112 0.0 0.0 0.00 0.00 0.00 77 1011.6
20260502233603 -1 112 0.0 0.0 0.00 0.00 0.00 77 1011.5
20260502233103 -1 112 0.0 0.0 0.00 0.00 0.00 77 1011.6
20260502232603 -1 112 0.0 0.0 0.00 0.00 0.00 76 1011.6
20260502232103 -1 112 0.0 0.0 0.00 0.00 0.00 77 1011.5
20260502231603 0 112 0.0 0.0 0.00 0.00 0.00 77 1011.6
20260502231103 0 112 0.0 0.0 0.00 0.00 0.00 77 1011.5
20260502230603 0 112 0.0 0.0 0.00 0.00 0.00 77 1011.9
20260502225603 0 112 0.0 0.0 0.00 0.00 0.00 75 1011.9
20260502225103 0 112 0.0 0.0 0.00 0.00 0.00 75 1011.9
20260502224603 0 112 0.0 0.0 0.00 0.00 0.00 75 1012.0
20260502224103 0 112 0.0 0.0 0.00 0.00 0.00 75 1012.0
20260502223603 0 112 0.0 0.0 0.00 0.00 0.00 74 1012.1
20260502223103 0 112 0.0 0.0 0.00 0.00 0.00 74 1012.2
20260502222603 0 112 0.0 0.0 0.00 0.00 0.00 74 1012.1
20260502222103 0 112 0.0 0.0 0.00 0.00 0.00 75 1012.1
20260502221603 1 112 0.0 0.0 0.00 0.00 0.00 75 1012.1
20260502221103 1 112 0.0 0.0 0.00 0.00 0.00 75 1012.1
20260502220603 1 112 0.0 0.0 0.00 0.00 0.00 75 1012.2
20260502220103 1 112 0.0 0.0 0.00 0.00 0.00 74 1012.1
20260502215603 1 112 0.0 0.0 0.00 0.00 0.00 74 1012.2
20260502215103 1 112 0.0 0.0 0.00 0.00 0.00 74 1012.2
20260502214603 1 112 0.0 0.0 0.00 0.00 0.00 75 1012.2
20260502214103 2 112 0.0 0.0 0.00 0.00 0.00 75 1012.2
20260502213603 2 112 0.0 0.0 0.00 0.00 0.00 75 1012.3
20260502213103 2 112 0.0 0.0 0.00 0.00 0.00 74 1012.3
20260502212603 2 112 0.0 0.0 0.00 0.00 0.00 74 1012.3
20260502212103 2 112 0.0 0.0 0.00 0.00 0.00 73 1012.3
20260502211603 2 112 0.0 0.0 0.00 0.00 0.00 72 1012.2
20260502211103 2 112 0.0 0.0 0.00 0.00 0.00 71 1012.1
20260502210603 2 112 0.0 0.0 0.00 0.00 0.00 70 1012.3
20260502205603 2 112 0.0 0.0 0.00 0.00 0.00 70 1012.3
20260502205103 2 112 0.0 0.0 0.00 0.00 0.00 70 1012.2
20260502204603 2 112 0.0 0.0 0.00 0.00 0.00 69 1012.2
20260502204103 3 112 0.0 0.0 0.00 0.00 0.00 69 1012.2
20260502203603 3 112 0.0 0.0 0.00 0.00 0.00 69 1012.2
20260502203103 3 112 0.0 0.0 0.00 0.00 0.00 69 1012.2
20260502202603 3 112 0.0 0.0 0.00 0.00 0.00 68 1012.2
20260502202103 3 112 0.0 0.0 0.00 0.00 0.00 67 1012.3
20260502201603 3 112 0.0 0.0 0.00 0.00 0.00 67 1012.4
20260502201103 3 112 0.0 0.0 0.00 0.00 0.00 67 1012.3